Regional Weather Roundup
Issued by NWS

Home | Current Version | Previous Version | Graphics & Text | Print | Product List | Glossary On
Versions: 1 2 3 4 5 6 7 8 9 10 11 12 13 14 15 16 17 18 19 20 21 22 23 24 25 26 27 28 29 30 31 32 33 34 35 36 37 38 39 40 41 42 43 44 45 46 47 48 49 50
000
ASUS43 KFSD 050402
RWRSD

WEATHER ROUNDUP FOR SOUTH DAKOTA
NATIONAL WEATHER SERVICE SIOUX FALLS SD
1000 PM CST SUN DEC 04 2016

NOTE: "FAIR" INDICATES FEW OR NO CLOUDS BELOW 12,000 FEET WITH NO
SIGNIFICANT WEATHER AND/OR OBSTRUCTIONS TO VISIBILITY.


SDZ001>005-009-010-012>017-050500-
NORTHWEST AND NORTH CENTRAL SOUTH DAKOTA

CITY           SKY/WX    TMP DP  RH WIND       PRES   REMARKS
BUFFALO          N/A     32  22  66 S3        29.47F
FAITH            N/A     27  22  81 S15       29.57F WCI  15
MOBRIDGE       CLOUDY    29  24  82 SE9       29.61F WCI  20
$$

SDZ012>016-024>037-041>051-057-063-072>074-050500-
SOUTHWEST AND SOUTH CENTRAL SOUTH DAKOTA

CITY           SKY/WX    TMP DP  RH WIND       PRES   REMARKS
RAPID CTY ARPT PTCLDY    34  18  52 SE3       29.55F
PIERRE         CLOUDY    29  23  78 SE8       29.65F WCI  21
CUSTER         CLOUDY    35  17  47 W8        29.58F WCI  29
ELLSWORTH AFB  CLOUDY    37  18  46 S7        29.53F
PHILIP         CLOUDY    34  24  67 NE3       29.61F
PINE RIDGE     CLOUDY    35  25  66 S7        29.61F WCI  29
SPEARFISH      FAIR      41  21  45 W9        29.53F
WINNER         FAIR      38  25  59 SE12      29.67F
$$

SDZ004>011-016>023-039-040-050500-
NORTHEAST SOUTH DAKOTA

CITY           SKY/WX    TMP DP  RH WIND       PRES   REMARKS
ABERDEEN       CLEAR     24  21  88 SE5       29.70F WCI  18
WATERTOWN      CLEAR     26  24  92 S7        29.72F WCI  18
SISSETON         N/A     33  27  78 W13       29.70S WCI  24
$$

SDZ017-020-022-023-036>040-048>070-050500-
SOUTHEAST SOUTH DAKOTA

CITY           SKY/WX    TMP DP  RH WIND       PRES   REMARKS
SIOUX FALLS    PTCLDY    33  29  85 SW6       29.78S WCI  28
HURON          CLOUDY    30  27  88 S7        29.72F WCI  23
CHAMBERLAIN    PTCLDY    33  28  84 SE7       29.70F WCI  26
MITCHELL       CLOUDY    32  28  85 S12       29.75F WCI  23
YANKTON        CLEAR     34  25  69 S5        29.79F WCI  30
$$

ABBREVIATIONS USED IN REMARKS
   TC - TEMPERATURE IN CELSIUS
  WCI - WIND CHILL INDEX
   HX - HEAT INDEX
  VSB - VISIBILITY





USA.gov is the U.S. government's official web portal to all federal, state and local government web resources and services.